Location: Unspecified
(0.0000°N, 0.0000°E)
Time: 16:53:02
(UTC+01:00)

Ariane H10+ - Visible Passes

Search period start: 25 February 2018 00:00
Search period end: 07 March 2018 00:00
Orbit: 312 x 31242 km, 6.9° (Epoch: 24 February)

Date Brightness Start Highest point End Pass type
(mag) Time Alt. Az. Time Alt. Az. Time Alt. Az.
26 Feb 7.4 11:21:08 10° W 19:13:59 90° S 19:49:03 10° E visible
27 Feb 3.7 05:20:55 60° NNE 05:20:55 60° NNE 05:31:32 10° E visible
27 Feb 6.7 15:13:58 10° W 16:54:53 34° W 23:10:08 53° WNW visible
01 Mar 6.7 12:22:42 10° W 20:30:18 85° N 20:45:13 29° ENE visible
02 Mar 4.7 06:16:53 20° WNW 06:20:16 84° N 14:02:04 10° E visible
02 Mar 11.3 16:42:42 10° W 17:52:56 17° W 19:55:57 10° W visible
02 Mar 7.5 23:51:20 10° W 00:06:15 25° WNW 00:06:15 25° WNW visible
04 Mar 6.2 13:26:31 10° W 15:20:26 57° WSW 21:41:13 58° ENE visible
